Other Surface Observations
Issued by NWS Tucson, AZ

Home | Current Version | Previous Version | Text Only | Print | Product List | Glossary On
Versions: 1 2 3 4 5 6 7 8 9 10 11 12 13 14 15 16 17 18 19 20 21 22 23 24 25 26 27 28 29 30 31 32 33 34 35 36 37 38 39 40 41 42 43 44 45 46 47 48 49 50
000
SXUS55 KTWC 191415
OSOTWC

WEATHER ROUNDUP FOR SOUTHEAST ARIZONA
NATIONAL WEATHER SERVICE TUCSON AZ
715 AM MST SUN FEB 19 2017

AZZ504>506-514-191515-
LOCATION       SKY/WX    TMP DP  RH WIND       PRES   REMARKS
TUCSON         CLOUDY    49  40  71 E6        29.88R
DAVIS-MONTHAN  DRIZZLE   47  39  73 E7        29.88R
CHILDRENS PARK N/A      N/A N/A  67 SE7               PIMA CO DEQ
ALVERNON/22ND  N/A       50 N/A N/A E7                PIMA CO DEQ
CHERRY/GLENN   N/A       51 N/A N/A SE7               PIMA CO DEQ
TANGERINE      N/A       49 N/A N/A S9                PIMA CO DEQ
CONTL RANCH    N/A       50  39  67 SE7               PIMA CO DEQ
GRANT/1ST      N/A       50  39  65 E6                PIMA CO DEQ
CRAYCROFT/22ND N/A       49  38  66 N/A               PIMA CO DEQ
GOLFLINKS/KOLB N/A       49  37  64 SE6               PIMA CO DEQ
AJO/12TH       N/A       49  40  70 SE7               PIMA CO DEQ
FAIRGROUNDS    N/A       45 N/A N/A SE9               PIMA CO DEQ
SAGUARO        N/A       47  40  76 CALM              *SABINO CYN
SAN CARLOS     N/A       45  44  97 CALM              *SAN CARLOS
GREEN VALLEY   N/A       45  40  81 S8                PIMA CO DEQ
HORSE CAMP CYN N/A       41  38  88 SE9G17            *ARAVAIPA CYN
RINCON MTNS    NOT AVBL
$$

AZZ509>511-191515-
LOCATION       SKY/WX    TMP DP  RH WIND       PRES   REMARKS
SAFFORD        PTCLDY    44  36  73 E9        29.86R
STRAY HORSE    N/A       28  28  100 N/A              *
TRAIL CABIN    N/A       33  32  95 E3                *N OF GRANVILLE
BLACK HILLS    NOT AVBL
DRY LAKE       N/A       29  29  100 S6G12            *NATANES MTNS
NOON CREEK     N/A       36  34  92 SW3               *PINALENO MTNS
COLUMBINE      NOT AVBL
GUTHRIE        N/A       32  32  100 SW13G24          *SW OF GUTHRIE
$$

AZZ502-503-513-191515-
LOCATION       SKY/WX    TMP DP  RH WIND       PRES   REMARKS
NOGALES        CLOUDY    42  38  85 SE8       29.88R
SELLS          N/A       47  44  89 SE8G16            *
SASABE         N/A       44  42  93 S7G15             *ALTAR VLY
HOPKINS        NOT AVBL
CARR CYN       N/A       33  33  98 CALM              *W OF HEREFORD
$$

AZZ507-508-512-191515-
LOCATION       SKY/WX    TMP DP  RH WIND       PRES   REMARKS
SIERRA VISTA   MOCLDY    36  35  96 NE5       29.89S WCI  32
DOUGLAS        CLEAR     36  35  96 SE7       29.91R WCI  30
EMPIRE MTNS    NOT AVBL
MULESHOE RANCH N/A       38  35  90 SE3               *PRESERVE
HEADQUARTERS   NOT AVBL
$$

.............................NOTES.............................
THIS IS AN AUTOMATED COLLECTIVE WITH MINIMAL QUALITY CONTROL.
PIMA CO DEQ SITES HAVE NONSTANDARD WIND SENSOR HEIGHTS.
PIMA CO DEQ SITES DO NOT REPORT WIND GUSTS.
* INDICATES WIND SENSORS LOCATED AT 20 FEET INSTEAD OF 33 FEET.
..............................KEY..............................
SKY/WX - SKY CONDITION/WEATHER
TMP    - TEMPERATURE IN FAHRENHEIT
DP     - DEWPOINT IN FAHRENHEIT
RH     - RELATIVE HUMIDITY IN PERCENT
WIND   - DIRECTION AND SPEED IN MILES PER HOUR (MPH)
VRB    - VARIABLE WIND DIRECTION
PRES   - MEAN SEA LEVEL PRESSURE IN INCHES OF MERCURY
         F - FALLING PRESSURE   R - RISING PRESSURE
         S - STEADY PRESSURE
VSB    - VISIBILITY IN MILES
HX     - HEAT INDEX IN FAHRENHEIT
WCI    - WIND CHILL INDEX IN FAHRENHEIT
N/A    - NOT AVAILABLE
AFB    - AIR FORCE BASE
         DAVIS-MONTHAN IS DAVIS-MONTHAN AIR FORCE BASE
CYN    - CANYON
MTNS   - MOUNTAINS
NCA    - NATIONAL CONSERVATION AREA
NR     - NEAR
VLY    - VALLEY
CONTL  - CONTINENTAL
PIMA CO DEQ - PIMA COUNTY DEPT OF ENVIRONMENTAL QUALITY



USA.gov is the U.S. government's official web portal to all federal, state and local government web resources and services.